Weather in Pervomayskoye

Russia / Karachay-Cherkess Republic     43°56′17″N   42°28′53″E
temp.,
°C
wind,
m/s
gust,
m/s
humid.,
%
clouds,
%
prec.,
mm/h
press.,
hPa
HPBL,
m
9 may, sun
sun900:00+12ssw326914 0.0 101016
03:00+12sw3258100 0.0 100924
06:00+10sw3474100 0.2 101078
09:00+12nne338272 0.2 1009634
12:00+9nw2698100 7.4 1011359
15:00+3wnw101596100 11.6 1017854
18:00+2w71496100 1.2 1019751
21:00+2wnw81496100 1.5 1023951
10 may, mon
mon1000:00+2w8148992 0.2 10231109
03:00+1w7148610 0.3 1024665
06:00+1w814825 0.0 1024848
09:00+5w9126210 0.0 10221506
12:00+7wnw9115774 0.1 10211858
15:00+8wnw9115691 0.3 10191924
18:00+4wnw6108498 0.8 1021991
21:00+2w2799100 4.3 1022478
11 may, tue
tue1100:00+1ssw2295100 0.3 1021141
03:000s3392100 0.3 1020100
06:00+1s2386100 0.0 1019113
09:00+5se4469100 0.0 1017661
12:00+7ese4462100 0.0 10161048
15:00+7e5570100 0.1 10161089
18:00+6e5678100 0.1 1017677
21:00+3se229349 0.1 101829
12 may, wed
wed1200:00+2s228710 0.0 101810
03:00+2ssw22805 0.0 101812
06:00+4ssw21715 0.0 101723
09:00+10ene32595 0.0 1015568
12:00+14ene43581 0.0 1015949
15:00+15ene556515 0.0 1015940
18:00+12e47805 0.0 1016410
21:00+8sse22900 0.0 101614
13 may, thu
thu1300:00+9s22680 0.0 101512
03:00+8s22460 0.0 101511
06:00+10s22530 0.0 101512
09:00+17ene32505 0.0 1014312
12:00+20ene33527 0.0 1013672
15:00+20e55595 0.0 1013720
18:00+17e46812 0.1 1014321
21:00+13sse228946 0.1 101517